This is the latest recevied weather packets stored in our database for station/object CE2LOH-10. If no packets are shown the sender has not sent any weather packets the latest 1 day(s).
| Time | Temp. | Humidity | Pressure | Rain* | Wind** | Luminosity | Snow |
|---|---|---|---|---|---|---|---|
| 1777874015 | 15° C | 31% | 994.7 hPa | - | - | - | - |
| 1777873115 | 15° C | 31% | 994.7 hPa | - | - | - | - |
| 1777872215 | 15.56° C | 31% | 995.1 hPa | - | - | - | - |
| 1777871315 | 15.56° C | 31% | 995.3 hPa | - | - | - | - |
| 1777870415 | 15.56° C | 31% | 995.3 hPa | - | - | - | - |
| 1777869514 | 15.56° C | 31% | 995.3 hPa | - | - | - | - |
| 1777868614 | 16.11° C | 31% | 995.4 hPa | - | - | - | - |
| 1777867714 | 16.11° C | 30% | 995.3 hPa | - | - | - | - |
| 1777866814 | 16.11° C | 30% | 995.5 hPa | - | - | - | - |
| 1777865914 | 16.67° C | 30% | 995.7 hPa | - | - | - | - |
| 1777865014 | 16.67° C | 30% | 995.6 hPa | - | - | - | - |
| 1777864114 | 16.67° C | 29% | 995.9 hPa | - | - | - | - |
| 1777863214 | 17.22° C | 29% | 996 hPa | - | - | - | - |
| 1777862313 | 17.22° C | 29% | 995.9 hPa | - | - | - | - |
| 1777861413 | 17.78° C | 29% | 996 hPa | - | - | - | - |
| 1777860513 | 17.78° C | 29% | 996 hPa | - | - | - | - |
| 1777859613 | 17.78° C | 29% | 996.1 hPa | - | - | - | - |
| 1777858713 | 18.33° C | 29% | 996.2 hPa | - | - | - | - |
| 1777857813 | 18.33° C | 29% | 996.1 hPa | - | - | - | - |
| 1777856913 | 18.33° C | 29% | 995.9 hPa | - | - | - | - |
| 1777856013 | 18.89° C | 28% | 996 hPa | - | - | - | - |
| 1777855112 | 18.89° C | 28% | 996 hPa | - | - | - | - |
| 1777854212 | 19.44° C | 27% | 995.7 hPa | - | - | - | - |
| 1777853312 | 19.44° C | 26% | 995.9 hPa | - | - | - | - |
| 1777852412 | 20° C | 26% | 995.7 hPa | - | - | - | - |
* Rain since midnight (hover to see other rain measurements)
** Current wind speed in m/s (hover to see current wind gust speed)